Regional Weather Roundup
Issued by NWS Cleveland, OH

Home | Current Version | Previous Version | Graphics & Text | Print | Product List | Glossary On
Versions: 1 2 3 4 5 6 7 8 9 10 11 12 13 14 15 16 17 18 19 20 21 22 23 24 25 26 27 28 29 30 31 32 33 34 35 36 37 38 39 40 41 42 43 44 45 46 47 48 49 50
000
ASUS41 KCLE 300810
RWRCLE
OHIO REGIONAL WEATHER ROUNDUP
NATIONAL WEATHER SERVICE WILMINGTON, OH
400 AM EDT SUN AUG 30 2015

NOTE: "FAIR" INDICATES FEW OR NO CLOUDS BELOW 12,000 FEET WITH NO
SIGNIFICANT WEATHER AND/OR OBSTRUCTIONS TO VISIBILITY.

OHZ001>008-015>018-024>027-034-035-043-044-300900-
   NORTHWEST OHIO

CITY           SKY/WX    TMP DP  RH WIND       PRES   REMARKS
DEFIANCE       CLOUDY    69  66  90 SE6       30.04S FOG
FINDLAY        MOCLDY    70  68  93 SE6       30.04S FOG
TOLEDO EXPRESS CLOUDY    67  67 100 CALM      30.03F FOG
TOLEDO EXEC    LGT RAIN  70  67  90 CALM      30.04F FOG
LIMA           MOCLDY    68  65  90 SE9       30.05F
$$

OHZ009>014-019>023-028>033-038-089-300900-
   NORTHEAST OHIO

CITY           SKY/WX    TMP DP  RH WIND       PRES   REMARKS
CLE-HOPKINS    LGT RAIN  67  65  93 SW3       30.08S
CLE-LAKEFRONT  CLOUDY    69  65  86 SW7       30.06R
CUY CO. ARPT   NOT AVBL
LORAIN-ELYRIA  LGT RAIN  66  64  93 CALM      30.07F
ASHTABULA      HVY RAIN  66  66 100 S6        30.09R FOG
AKRON-CANTON   LGT RAIN  69  65  86 SW8       30.10R FOG
WOOSTER        LGT RAIN  66  64  93 CALM      30.11R FOG
MANSFIELD      HVY RAIN  67  67 100 SE5       30.09S FOG
YOUNGSTOWN     TSTM      67  65  93 S3        30.10R FOG
$$

OHZ042-051>053-060>062-070>072-077>081-300900-
  SOUTHWEST OHIO

CITY           SKY/WX    TMP DP  RH WIND       PRES   REMARKS
CINC-COVINGTON MOCLDY    66  64  93 S5        30.08S
CINC-LUNKEN    FOG       64  64 100 CALM      30.08S VSB 1
HAMILTON       MOCLDY    70  67  90 CALM      30.07F
DAYTON         LGT RAIN  69  65  86 S5        30.06F
WRIGHT-PAT AFB MOCLDY    68  66  93 CALM      30.05F
DAYTON GENERAL CLOUDY    67  64  90 S7        30.06F
WILMINGTON     MOCLDY    67  64  90 S3        30.09S
$$

OHZ036-037-039>041-045>050-054>059-063>069-073>076-082>088-300900-
  CENTRAL AND SOUTHEAST OHIO

CITY           SKY/WX    TMP DP  RH WIND       PRES   REMARKS
COLUMBUS       LGT RAIN  68  66  93 E3        30.07F
OSU AIRPORT    MOCLDY    67  65  93 NW3       30.07F
BOLTON FIELD   CLOUDY    66  65  97 CALM      30.08S
RICKENBACK AFB CLOUDY    68  65  88 S5        30.07F
NEWARK         LGT RAIN  67  65  93 E6        30.09R
MARION         CLOUDY    67  63  87 CALM      30.08S
LANCASTER      PTCLDY    68  65  90 SE3       30.09S
ZANESVILLE     CLOUDY    70  65  84 CALM      30.10R
NEW PHILLY     RAIN      69  68  96 W3        30.12R FOG
$$



USA.gov is the U.S. government's official web portal to all federal, state and local government web resources and services.